Back to catalog

SCOUT A-1 DEB

AlivePO
NORAD 15764·DEBRIS·🇺🇸 United States

Launched Oct 30, 1973 from Vandenberg Space Force Base

Loading…

Next Passes (next 24 hours)

TLE

FreshSource: Space-Track

Epoch: Sep 14, 2026, 12:46 UTC

1 15764U 73081C   26257.53195876  .00000152  00000-0  16049-3 0  9999
2 15764  90.4765 282.1898 0179737 271.6192 244.1284 13.65552385148658

Track SCOUT A-1 DEB in real time with AllMySat

Download on the App Store